Location: Caltech
(34.1382°N, 118.1253°W)
Time: 00:22:36
(UTC-07:00)

KITSAT 1 - Visible Passes

Search period start: 16 September 2014 00:00
Search period end: 26 September 2014 00:00
Orbit: 1312 x 1319 km, 66.1° (Epoch: 15 September)

Date Brightness Start Highest point End Pass type
(mag) Time Alt. Az. Time Alt. Az. Time Alt. Az.
16 Sep 12.4 04:12:31 10° N 04:18:35 22° NE 04:24:36 10° E visible
16 Sep 10.3 06:06:43 10° NNW 06:14:48 79° WSW 06:22:50 10° SSE visible
16 Sep 10.5 20:30:12 10° SW 20:38:14 68° WNW 20:46:19 10° NNE visible
16 Sep 12.6 22:30:54 10° WNW 22:35:12 15° NW 22:39:31 10° N visible
17 Sep 11.8 04:28:03 10° N 04:35:08 32° NE 04:42:10 10° ESE visible
17 Sep 11.2 20:46:48 10° SW 20:54:29 47° WNW 21:02:13 10° NNE visible
17 Sep 12.9 22:51:36 10° NW 22:52:11 10° NNW 22:52:46 10° NNW visible
18 Sep 12.9 02:52:59 10° NNE 02:53:51 10° NNE 02:54:42 10° NE visible
18 Sep 11.2 04:43:47 10° NNW 04:51:31 47° ENE 04:59:12 10° SE visible
18 Sep 10.4 19:07:27 10° S 19:15:13 54° ESE 19:23:01 10° NE visible
18 Sep 11.8 21:03:51 10° WSW 21:10:52 32° NW 21:17:57 10° N visible
19 Sep 12.6 03:06:28 10° N 03:10:49 15° NE 03:15:09 10° ENE visible
19 Sep 10.5 04:59:42 10° NNW 05:07:46 69° ENE 05:15:46 10° SE visible
19 Sep 10.2 19:23:07 10° SSW 19:31:11 80° ESE 19:39:18 10° NNE visible
19 Sep 12.3 21:21:26 10° W 21:27:26 22° NW 21:33:29 10° N visible
20 Sep 12.3 03:21:37 10° N 03:27:35 22° NE 03:33:30 10° E visible
20 Sep 10.2 05:15:46 10° NNW 05:23:51 82° WSW 05:31:54 10° SSE visible
20 Sep 10.6 19:39:14 10° SW 19:47:17 70° WNW 19:55:22 10° NNE visible
20 Sep 12.7 21:39:45 10° WNW 21:44:12 15° NW 21:48:40 10° N visible
21 Sep 11.7 03:37:08 10° N 03:44:09 31° NE 03:51:07 10° ESE visible
21 Sep 10.3 05:32:02 10° NW 05:39:50 54° WSW 05:47:35 10° S visible
21 Sep 11.2 19:55:47 10° SW 20:03:30 48° WNW 20:11:17 10° NNE visible
21 Sep 12.9 21:59:51 10° NW 22:01:09 10° NNW 22:02:28 10° NNW visible
22 Sep 11.1 03:52:51 10° NNW 04:00:33 46° NE 04:08:11 10° SE visible
22 Sep 10.7 05:48:36 10° NW 05:55:41 35° WSW 06:02:45 10° S visible
22 Sep 11.9 20:12:48 10° WSW 20:19:53 33° NW 20:27:01 10° N visible
23 Sep 12.5 02:15:36 10° N 02:19:48 15° NE 02:23:59 10° ENE visible
23 Sep 10.5 04:08:45 10° NNW 04:16:48 67° ENE 04:24:47 10° SE visible
23 Sep 11.2 06:05:39 10° WNW 06:11:26 22° WSW 06:17:13 10° SSW visible
23 Sep 12.4 20:30:21 10° W 20:36:26 23° NW 20:42:34 10° N visible
24 Sep 12.1 02:30:43 10° N 02:36:35 21° NE 02:42:24 10° E visible
24 Sep 10.1 04:24:48 10° NNW 04:32:54 84° WSW 04:40:57 10° SSE visible
24 Sep 12.6 20:48:36 10° WNW 20:53:11 16° NW 20:57:47 10° N visible
25 Sep 11.6 02:46:13 10° N 02:53:10 31° NE 03:00:04 10° ESE visible
25 Sep 10.2 04:41:04 10° NW 04:48:53 56° WSW 04:56:40 10° S visible
25 Sep 11.3 19:04:47 10° SW 19:12:32 49° WNW 19:20:20 10° NNE visible
25 Sep 12.8 21:08:23 10° NW 21:10:08 11° NW 21:11:53 10° NNW visible
